Wind_Speed
127 128 129 129 129 128 128 127 126 125 124 123 122 120 119 118 117 116 115 114 113 111 110 109 109 108 107 107 107 107 107 107 107 107 106 105 104 104 104 105 105 106 106 107 107 107 107 107 107 106 106 105 104 102 102 101 101 101 102 103 103 103 103 103 102 102 102 103 103 102 103 103 103 104 104 104 105 105 106 107 109 110 110 111 112
130 131 132 133 133 132 131 131 130 129 128 128 127 126 125 124 123 122 121 120 119 117 115 114 113 112 112 111 111 111 111 111 111 111 110 109 108 108 108 108 109 109 109 110 110 110 110 110 109 109 109 108 108 107 106 106 105 104 105 106 107 107 107 107 107 106 107 107 107 107 107 107 107 108 108 108 109 110 110 111 113 114 114 115 115
130 131 132 134 135 135 134 133 133 132 131 131 130 130 129 128 127 126 125 125 124 123 121 120 119 118 117 116 115 116 116 116 116 116 115 114 113 112 112 112 112 112 112 113 114 114 113 112 112 112 112 111 111 110 110 109 109 109 109 110 110 111 111 111 110 110 110 111 111 110 111 111 111 112 112 113 113 114 114 115 116 117 118 118 119
128 129 129 131 133 134 135 135 135 134 133 133 132 132 132 131 131 130 129 129 128 127 126 125 124 123 122 121 120 120 120 120 120 120 119 119 118 118 118 117 116 116 116 116 117 117 117 116 115 115 116 115 115 114 113 113 113 113 114 114 114 115 115 115 114 113 113 113 114 114 114 114 114 115 116 116 117 117 118 119 120 121 122 122 122
126 126 126 127 128 130 132 134 135 135 135 134 134 133 133 133 133 133 133 132 132 131 130 129 129 128 127 127 125 125 124 124 124 123 123 123 123 123 123 122 121 120 119 120 120 121 120 120 119 120 120 120 119 118 117 118 118 118 118 118 118 119 119 119 118 117 116 116 117 117 117 117 117 118 119 120 121 122 123 124 125 126 126 126 125
124 124 123 124 124 126 127 129 131 133 133 133 133 133 134 134 134 135 136 135 135 135 134 134 133 133 132 131 130 129 128 128 127 126 126 126 126 127 127 127 126 125 124 123 123 123 124 124 124 124 124 124 123 122 122 123 123 123 123 123 124 124 123 122 122 121 120 120 120 121 121 121 121 121 123 124 125 126 127 128 129 130 130 130 129
121 121 120 120 121 121 122 124 126 128 129 130 131 132 132 133 133 134 135 136 136 136 136 136 136 136 135 135 134 133 133 132 131 130 130 129 129 129 130 130 130 129 128 128 127 126 127 127 128 128 127 127 126 126 126 126 126 126 126 126 127 127 126 125 124 125 125 125 125 126 126 126 125 126 126 128 128 129 130 131 132 133 133 133 133
119 119 119 119 118 119 119 120 121 122 124 125 126 128 129 130 131 132 132 133 134 134 135 135 135 135 135 135 135 134 133 133 134 134 134 134 133 133 133 133 133 134 134 134 134 132 131 130 130 130 130 130 130 130 130 129 129 129 129 129 130 130 129 129 129 129 130 130 131 131 131 131 130 130 130 131 131 132 133 134 134 134 135 134 134
118 118 119 119 119 118 118 118 119 119 120 121 122 123 125 126 127 128 129 130 131 131 131 132 132 132 133 133 134 134 133 132 132 133 133 133 133 133 133 134 135 136 137 137 137 136 134 133 132 133 133 133 133 133 133 133 133 133 133 133 133 133 133 133 133 134 134 134 133 132 131 130 129 129 129 130 131 132 133 134 133 133 133 132 132
117 117 118 119 120 120 120 119 118 118 118 119 119 120 121 122 124 125 126 127 128 129 129 129 129 130 131 131 132 133 132 132 132 131 131 130 129 129 129 130 131 132 132 132 132 132 131 131 132 133 134 135 135 135 135 135 136 135 135 135 136 136 136 136 135 135 133 130 128 126 125 125 125 125 126 127 128 129 129 130 129 129 128 128 128
115 116 116 117 118 120 121 121 120 120 119 119 118 118 118 119 121 122 123 124 125 126 126 127 127 128 128 129 130 131 131 131 132 131 131 130 129 128 127 126 126 126 125 125 125 126 127 127 129 131 133 134 135 136 136 136 136 136 136 136 136 136 136 135 133 130 127 124 122 121 121 120 121 121 121 122 123 124 124 124 124 124 124 124 124
111 113 114 115 116 117 119 121 121 121 121 120 119 118 118 118 119 120 120 121 121 122 123 124 125 125 125 126 127 127 127 128 129 130 129 129 128 127 126 125 124 123 122 122 122 122 123 125 126 127 129 131 132 133 134 135 135 135 135 134 133 133 132 130 128 125 122 120 119 118 118 117 117 117 118 119 119 119 120 120 120 120 120 121 121
108 109 110 112 113 114 116 118 119 120 121 121 121 120 119 118 118 118 119 119 119 120 120 121 122 122 122 123 123 123 122 123 124 124 124 124 124 124 124 123 123 122 122 121 121 121 122 123 123 124 125 127 127 128 128 129 130 130 129 128 128 127 126 125 123 121 119 118 116 116 116 116 115 115 116 116 116 117 117 118 118 118 118 119 119
105 106 107 108 110 111 112 114 116 118 119 121 122 122 121 120 118 117 117 117 118 118 118 119 119 119 119 120 120 120 120 119 120 120 119 119 119 120 120 120 120 120 120 120 120 121 121 122 122 122 122 123 124 123 123 123 124 124 124 123 123 123 123 122 120 118 117 116 116 115 116 116 115 114 115 115 116 116 117 117 117 116 117 117 117
105 106 105 106 107 108 110 111 113 114 116 118 120 121 122 122 121 120 118 116 116 116 117 117 116 116 116 117 117 117 118 118 118 118 117 116 116 117 117 117 118 118 118 119 120 120 121 122 122 121 121 121 121 121 120 119 120 121 121 121 122 122 121 120 118 116 115 116 116 117 117 116 115 114 114 115 116 116 117 117 117 117 117 116 115
106 106 106 105 106 107 108 109 111 112 114 115 117 119 120 122 123 123 121 119 117 116 115 115 115 115 115 115 115 115 116 117 118 117 117 116 115 115 115 115 116 117 117 118 119 120 121 122 122 121 120 120 120 120 119 119 119 120 120 120 121 120 119 119 117 116 116 116 117 118 118 117 116 115 115 116 117 117 118 118 118 118 117 115 114
106 106 106 105 106 107 107 108 109 110 112 114 115 116 118 119 121 122 123 122 121 119 117 115 114 114 115 115 114 114 115 117 118 117 117 117 115 114 114 114 114 115 116 117 119 120 121 122 123 122 121 119 119 119 119 119 120 120 120 120 120 119 119 119 118 118 117 118 119 120 120 119 118 117 116 117 118 118 118 119 119 118 117 115 114
107 106 105 104 105 107 108 109 109 110 111 112 113 114 116 117 119 120 122 122 122 122 121 119 116 115 115 115 115 114 114 115 117 118 118 117 116 114 114 114 114 114 115 116 118 119 120 121 122 122 121 120 119 119 119 119 119 119 119 119 119 118 118 118 118 118 118 118 119 121 121 121 120 118 117 117 118 118 119 119 119 118 116 115 115
105 104 103 104 104 105 107 108 109 110 111 112 112 113 114 115 117 118 119 120 121 121 122 121 120 119 118 117 116 116 115 116 117 118 118 118 117 116 114 113 113 114 114 115 117 118 118 120 121 121 121 120 120 119 119 119 119 118 118 117 116 116 116 117 118 118 118 118 119 121 122 123 122 119 118 117 116 115 115 115 114 113 112 112 112
102 102 102 103 104 104 106 106 107 109 110 111 112 113 113 114 115 116 117 118 119 119 120 120 121 120 120 119 117 117 117 118 119 120 120 120 119 118 116 114 114 114 115 115 115 116 117 118 119 119 120 120 120 120 119 119 118 118 117 116 115 114 116 117 118 118 118 118 119 120 122 123 122 120 118 116 113 111 109 108 107 107 107 107 107
99 99 100 100 102 103 105 106 106 107 108 108 109 110 112 113 114 115 116 117 117 118 118 119 119 119 120 121 119 118 117 118 120 121 121 122 122 120 118 116 115 116 116 115 115 115 115 116 117 118 119 119 119 119 118 118 117 117 117 116 115 116 117 117 118 118 118 118 118 119 120 121 122 121 119 116 113 110 107 106 105 105 105 104 104
95 96 96 97 99 100 102 103 104 104 105 106 106 106 107 109 111 113 114 115 116 116 117 117 118 118 118 120 121 120 119 118 118 119 121 122 122 121 119 117 117 117 116 115 114 114 114 115 116 117 118 118 117 117 116 116 116 116 116 116 116 117 117 117 118 118 118 118 118 118 119 120 121 120 118 116 114 111 108 106 105 104 103 103 103
92 93 93 95 96 97 99 100 100 101 102 103 103 103 103 105 107 109 111 113 114 114 114 115 116 116 117 118 120 121 121 120 118 118 119 120 121 120 119 117 117 116 115 115 114 114 114 114 115 115 116 116 116 115 115 115 115 115 115 116 117 118 118 118 119 119 118 117 117 117 118 119 120 119 118 116 114 111 108 106 105 104 103 103 103
91 91 92 93 94 95 96 97 97 98 98 99 100 99 100 101 103 104 106 109 110 111 112 113 114 114 115 116 117 119 122 123 121 118 117 118 119 119 118 117 116 116 115 114 114 114 114 114 114 115 116 115 115 114 115 115 115 115 115 116 118 118 118 119 119 118 117 116 116 116 117 118 118 118 117 116 114 110 107 106 105 104 104 103 104
90 90 91 92 93 94 95 95 95 95 96 96 97 96 97 98 100 101 103 104 105 106 107 108 110 111 112 113 115 116 119 122 123 120 118 116 116 116 116 116 115 115 115 115 115 115 114 115 115 116 116 116 116 115 115 115 115 115 115 116 118 118 118 118 118 117 116 115 115 115 115 116 117 117 116 115 112 110 107 106 106 105 105 105 106
88 88 89 90 91 92 93 93 93 94 95 95 95 94 94 96 97 98 100 101 102 102 103 103 105 106 108 110 112 114 115 118 120 121 120 118 115 114 114 114 114 113 113 114 114 114 115 115 116 117 118 118 118 117 116 116 116 116 116 116 117 117 116 116 116 116 115 115 114 113 113 114 115 116 116 114 112 111 109 109 108 107 106 107 108
85 85 86 88 89 89 90 90 90 91 93 93 93 93 93 93 94 95 97 98 99 100 100 100 101 102 103 105 108 111 112 114 115 118 120 120 117 114 112 111 111 111 111 111 113 114 115 116 117 117 118 119 119 118 117 117 117 116 115 116 117 116 115 115 115 115 114 113 112 112 112 114 116 116 115 113 113 113 112 111 110 109 109 109 109
82 82 83 85 85 85 86 86 86 87 89 91 91 91 91 92 92 92 93 95 96 97 98 98 98 98 99 101 103 106 108 109 111 114 117 118 117 115 112 110 109 109 109 110 113 114 115 115 116 116 116 117 118 118 117 117 116 116 115 115 116 115 114 114 114 114 113 112 111 111 113 115 116 115 114 114 115 114 113 113 112 111 111 111 111
79 80 80 81 81 81 82 82 83 84 86 87 88 88 89 90 90 89 89 91 93 93 94 94 94 95 96 97 99 101 103 105 107 110 112 113 114 114 112 111 109 109 109 110 111 113 114 114 114 115 115 115 115 116 116 116 115 115 114 114 114 114 113 113 113 112 112 112 112 113 114 114 114 114 114 115 115 115 115 114 114 113 112 113 112
78 78 78 78 78 78 79 79 80 81 82 83 84 85 85 87 87 87 87 89 90 90 90 90 91 93 93 93 94 97 99 102 105 107 108 108 109 110 110 109 109 109 110 109 109 111 113 113 113 114 114 114 114 114 113 113 113 113 113 113 113 113 112 112 111 111 112 112 113 114 114 113 113 114 115 116 116 116 116 115 114 114 113 113 112
76 77 77 77 76 76 77 77 78 79 79 80 80 81 82 83 83 83 84 85 87 87 86 86 87 89 90 90 91 93 95 98 102 104 104 105 106 107 107 107 108 108 109 109 108 108 110 111 111 111 112 112 112 112 112 112 112 112 113 113 113 113 112 111 111 111 112 113 114 114 113 113 114 115 116 116 116 116 116 115 114 114 113 112 111
75 75 76 75 75 76 76 76 77 77 77 77 77 77 78 79 79 80 80 81 82 83 83 83 83 85 87 88 89 90 92 94 98 100 100 101 102 103 104 105 105 106 107 107 106 106 107 108 108 109 110 110 110 111 111 112 112 112 113 113 113 113 112 111 111 113 114 114 114 113 113 114 115 115 116 116 116 116 115 114 114 113 112 112 111
72 73 73 73 73 74 74 75 75 76 75 76 76 75 75 75 76 76 76 76 77 79 80 80 80 80 82 84 86 87 89 92 94 95 96 96 98 99 101 102 103 104 104 103 102 102 104 104 105 106 108 109 109 110 111 112 113 113 113 113 113 113 112 112 113 114 115 114 114 114 114 115 115 115 115 115 115 115 115 114 113 113 112 112 111
70 70 70 69 70 71 71 72 73 73 73 73 74 74 74 73 73 73 74 74 73 74 75 76 77 77 78 80 82 84 86 89 91 92 92 93 94 96 97 97 97 99 99 98 97 98 100 100 101 103 105 105 106 109 111 112 114 114 114 114 113 113 112 113 114 115 116 115 114 114 114 115 114 114 114 114 114 115 114 114 114 113 113 112 112
67 67 66 66 66 66 67 68 69 70 70 71 72 72 72 72 71 71 71 71 70 70 70 71 72 73 74 76 77 79 82 85 88 90 90 91 91 93 93 92 92 93 94 94 93 95 96 98 99 100 101 102 104 106 108 111 112 114 114 113 113 112 112 113 114 115 116 115 114 114 114 114 114 114 114 114 114 114 114 114 115 114 114 114 113
64 64 63 63 62 62 62 63 65 66 67 68 69 69 69 69 69 69 69 68 68 67 67 66 67 69 71 73 74 75 77 80 84 87 88 88 88 89 89 88 88 90 91 90 90 91 93 95 96 97 98 100 101 102 104 107 109 111 111 111 110 110 110 111 112 114 114 114 114 114 114 114 114 114 115 115 114 114 114 114 114 115 115 115 115
61 61 60 60 59 59 59 60 61 62 64 65 66 66 66 66 66 66 66 66 65 65 64 63 63 64 66 68 70 71 72 75 78 82 85 86 85 84 84 85 86 88 89 88 88 88 90 92 94 95 96 98 100 100 101 103 106 107 108 107 107 107 108 109 110 111 111 112 113 113 113 114 114 115 115 115 115 114 114 114 114 115 115 115 115
58 58 58 57 57 57 57 58 58 59 60 61 62 63 63 63 63 63 63 63 63 63 62 61 61 61 61 63 66 67 69 70 72 75 79 81 81 80 81 83 85 86 87 86 86 86 87 90 93 94 96 97 98 100 101 102 103 103 104 104 104 104 104 105 106 107 109 110 111 111 112 112 113 114 115 115 114 114 114 114 114 114 114 114 114
55 55 55 54 54 55 56 56 55 56 56 58 59 60 60 60 60 60 60 60 60 61 61 60 59 59 59 59 61 63 64 65 67 69 73 76 77 78 80 82 83 84 84 84 83 83 85 88 91 93 95 96 98 100 101 102 101 101 100 101 102 102 102 103 104 105 107 108 109 109 109 110 111 113 113 114 114 113 113 113 114 114 113 113 113
53 53 52 51 51 52 53 54 54 53 53 54 56 57 57 58 58 58 57 57 57 58 59 59 58 58 57 57 58 59 61 62 64 66 69 72 74 76 78 79 80 81 82 81 80 81 83 86 90 92 94 96 99 100 101 101 100 98 98 98 99 99 100 101 102 104 105 106 106 107 108 108 109 110 112 113 113 112 112 112 112 112 112 112 111
52 51 50 50 50 50 51 52 52 51 51 52 53 54 55 55 55 55 55 55 55 55 56 58 57 57 56 56 56 57 59 60 62 64 66 69 71 73 75 76 75 76 78 79 79 80 81 84 89 92 94 96 98 99 98 97 96 95 95 95 95 97 98 100 101 102 103 103 104 105 106 107 108 108 110 111 112 112 112 112 112 111 111 110 109
50 50 49 49 49 49 49 50 50 50 50 50 50 51 52 53 53 54 53 53 53 53 54 55 56 56 56 55 55 56 58 59 61 62 64 66 69 71 72 73 72 73 74 76 77 79 80 83 87 90 94 96 95 94 93 92 91 91 91 92 93 95 97 98 99 99 100 101 102 104 105 106 106 107 108 110 111 112 112 112 111 110 109 108 107
49 49 48 48 48 48 48 48 48 48 48 48 49 49 50 50 51 51 52 52 52 51 52 53 54 54 55 55 55 56 57 58 60 61 62 64 66 68 69 70 70 70 71 73 75 78 79 80 83 87 91 93 91 89 88 88 88 89 90 91 92 94 95 96 97 97 98 99 100 102 104 105 106 107 108 109 110 110 111 111 110 109 108 106 104
49 49 48 47 47 47 48 48 48 48 47 47 47 48 48 48 49 49 50 50 50 50 51 51 52 53 53 54 54 55 56 57 58 59 61 62 64 65 66 67 68 69 70 71 73 75 77 78 81 84 86 86 86 85 86 87 87 89 90 91 92 93 94 96 97 97 97 97 97 99 101 103 104 105 106 106 107 107 107 107 107 106 105 103 101
48 48 48 47 46 45 45 46 47 47 47 47 46 46 46 47 47 47 48 48 49 49 50 50 50 51 52 52 52 53 54 55 56 57 59 61 62 64 65 66 67 68 69 70 71 73 75 77 79 80 81 81 81 83 85 86 87 88 89 89 91 92 94 95 96 96 96 96 96 97 97 98 99 101 101 102 102 102 102 102 102 102 101 99 98
47 47 47 46 45 44 44 44 44 45 46 46 45 45 45 45 45 46 46 46 47 48 48 49 49 50 50 51 51 51 52 53 54 55 57 59 60 62 64 65 66 67 68 69 71 73 74 76 77 78 79 79 81 82 84 85 87 87 87 88 89 91 93 94 94 94 94 95 95 95 95 95 96 96 96 97 97 97 97 97 97 96 96 95 94
45 45 45 45 44 44 43 42 42 42 43 44 44 44 44 44 44 44 44 45 45 46 47 47 48 48 49 49 50 50 51 51 52 53 55 56 58 60 62 64 65 67 68 69 70 72 73 75 76 76 77 79 80 82 83 84 85 85 86 87 88 89 91 92 92 92 92 93 93 94 95 94 94 94 93 93 93 93 93 93 93 92 92 92 91
43 43 43 43 43 43 42 42 41 41 41 41 42 43 43 43 43 43 43 44 44 44 45 46 46 47 48 48 49 49 50 50 50 52 53 54 56 58 59 61 63 65 66 68 69 71 72 73 74 75 76 77 78 80 80 81 82 83 84 85 86 87 88 89 90 91 91 91 92 92 93 93 93 92 91 91 91 91 91 91 90 90 90 90 89
41 40 40 40 41 41 41 41 41 40 40 40 40 40 41 41 41 42 42 42 42 43 43 44 44 45 46 47 47 48 48 49 50 50 51 52 54 55 57 59 60 62 64 65 67 69 70 72 73 74 75 76 76 77 77 79 80 81 82 82 83 84 85 86 87 88 89 89 90 90 90 90 90 90 89 89 89 89 89 89 89 89 89 89 88
41 39 38 38 38 38 39 39 39 40 39 39 39 39 39 40 40 40 41 41 41 41 42 42 43 43 44 45 46 47 47 48 49 49 50 51 52 53 55 57 58 60 61 63 64 66 68 69 70 72 72 73 74 75 75 77 78 79 79 80 81 82 83 84 85 86 87 87 88 88 88 88 87 87 87 88 88 88 88 88 88 88 88 88 87
40 39 38 36 35 35 36 36 37 38 38 38 38 38 38 39 39 39 40 40 40 40 41 41 41 42 43 44 44 45 46 47 47 48 49 49 50 51 53 54 56 58 59 61 62 64 65 66 67 68 70 71 72 73 73 75 76 77 78 78 79 80 81 82 83 84 84 85 85 85 85 85 86 86 86 86 86 86 86 86 86 86 87 86 86
Wind_Direction
271 271 271 271 271 270 270 270 269 269 269 268 267 266 265 265 264 264 264 263 263 263 263 262 262 262 263 263 263 263 263 263 264 264 265 265 265 265 265 265 264 264 264 265 265 265 266 266 267 267 268 268 268 269 269 269 270 270 270 270 270 270 270 270 270 271 271 272 272 272 273 273 273 273 274 274 274 274 274 274 275 275 275 276 276
269 269 269 270 269 269 269 268 268 268 267 267 267 266 266 265 265 264 264 264 263 263 262 262 261 261 261 261 262 262 262 262 262 263 263 263 264 264 265 265 265 265 265 266 266 266 267 267 268 268 268 268 268 269 269 269 269 269 269 270 270 270 270 270 270 270 271 271 272 272 273 273 273 274 274 275 275 275 275 275 275 276 276 276 277
268 267 267 268 268 268 268 267 267 266 266 266 266 265 265 265 265 265 264 264 264 264 263 262 262 261 261 260 260 261 261 261 261 262 262 262 262 262 263 263 264 264 265 265 266 266 267 267 267 268 268 268 268 268 268 268 268 268 269 269 270 270 271 271 270 270 270 271 271 272 272 273 274 274 275 275 275 276 276 276 276 276 277 277 278
267 266 265 265 265 266 266 266 265 265 265 265 265 265 265 265 265 264 264 264 264 264 263 263 263 262 261 260 260 260 260 260 260 260 261 261 261 261 262 262 262 263 263 264 264 265 265 265 266 266 266 267 267 267 268 268 268 268 268 269 269 270 270 271 271 271 271 272 272 272 272 273 274 274 275 276 276 276 277 277 277 277 277 278 278
267 266 265 264 263 263 264 264 264 264 264 263 263 263 264 264 264 264 264 264 264 263 263 263 263 263 262 261 261 260 259 259 259 259 259 260 260 260 261 261 262 262 262 262 262 263 263 263 264 264 264 265 265 266 266 267 267 267 267 268 268 269 270 270 271 272 272 272 272 272 272 272 273 274 275 276 276 277 277 277 277 278 278 279 279
267 266 265 264 263 262 262 262 263 263 263 263 262 262 262 262 262 263 263 263 263 263 263 263 263 262 262 261 261 261 260 260 260 259 259 259 259 260 260 261 261 261 262 262 262 262 262 262 262 263 263 264 264 265 265 266 266 266 267 267 268 268 269 270 271 271 272 272 272 272 272 272 273 273 274 275 276 276 276 277 277 278 278 279 279
267 266 265 265 264 263 262 261 261 261 261 262 262 262 262 261 261 261 262 262 262 263 263 263 263 263 262 262 261 260 260 260 260 260 259 259 259 259 260 260 261 261 261 262 262 262 262 261 261 262 262 263 264 264 265 265 265 266 266 267 268 268 269 270 270 271 272 273 273 273 273 273 273 273 274 274 275 275 275 276 276 277 278 279 279
267 266 266 265 265 264 263 262 261 260 260 260 260 261 261 261 261 261 261 261 261 262 262 262 263 263 263 263 262 261 260 260 259 259 259 259 259 259 259 260 260 260 261 262 262 262 262 261 261 262 262 263 263 264 264 264 265 265 266 266 267 268 268 269 270 271 272 273 273 273 273 273 273 272 273 273 273 274 274 275 276 277 278 278 279
265 266 266 266 265 265 264 263 262 261 261 260 259 259 259 260 260 260 260 260 260 260 261 261 261 262 262 263 263 263 262 261 261 260 260 260 259 259 259 259 260 260 260 261 261 262 261 261 261 261 262 262 263 263 264 264 265 265 266 266 267 267 268 269 270 271 272 272 273 273 272 272 272 272 272 272 272 273 273 274 275 276 277 277 278
264 264 264 265 265 265 265 264 263 262 262 261 260 260 259 259 260 260 260 260 260 260 260 260 260 260 260 261 262 263 263 264 263 263 262 262 261 261 260 260 260 260 260 261 261 261 261 260 260 260 261 262 262 263 264 264 265 265 266 266 267 268 269 269 270 271 272 272 272 271 271 271 271 271 271 271 271 272 273 274 274 275 276 276 277
261 262 262 263 263 264 264 264 264 263 263 262 261 261 260 260 260 260 260 260 260 260 260 260 259 259 259 259 259 260 261 262 263 263 264 264 263 263 262 262 261 261 261 261 261 261 261 260 260 260 260 261 262 263 263 264 265 265 266 267 268 269 269 270 271 271 272 271 271 271 270 270 270 270 271 271 271 271 272 273 273 274 275 275 276
260 260 260 261 261 262 263 263 264 264 264 263 263 261 261 260 260 260 260 259 259 260 260 260 260 260 259 259 259 258 258 259 259 260 261 262 262 263 263 262 262 262 262 261 261 261 261 261 261 261 261 261 262 263 264 264 265 266 267 268 268 269 270 270 270 270 270 270 270 270 270 270 269 270 270 270 271 271 271 272 272 273 274 275 276
260 259 259 259 260 260 260 261 262 263 263 264 264 263 262 261 260 260 260 260 259 259 259 259 259 260 260 260 260 259 259 258 258 258 259 259 260 260 261 261 261 262 262 262 261 261 261 261 261 262 262 262 262 263 264 265 265 266 267 267 268 268 269 269 270 270 270 270 270 269 269 269 269 269 270 270 270 270 271 271 272 273 274 275 276
261 260 259 259 259 259 259 259 260 261 261 262 262 263 263 263 262 261 260 260 259 259 259 259 259 259 259 259 260 260 260 259 259 258 258 258 258 258 259 259 260 260 261 261 261 261 261 261 262 262 262 263 263 264 264 264 265 266 266 267 267 268 268 269 269 270 270 270 269 269 269 269 269 269 270 270 270 270 271 271 272 273 274 275 276
263 262 261 259 258 258 258 258 258 259 259 260 260 261 261 262 262 262 262 261 260 259 259 259 259 259 259 259 259 260 260 260 259 259 258 258 257 257 257 257 258 258 259 260 260 260 261 261 261 261 261 262 263 263 264 264 264 265 266 266 267 268 268 269 269 269 269 269 269 269 269 270 270 269 269 270 270 271 271 272 273 274 274 275 276
264 263 262 261 260 259 258 257 257 257 257 258 258 259 260 260 261 261 262 261 261 260 260 259 259 259 259 259 259 259 260 260 260 259 259 258 257 257 256 256 256 256 257 258 258 259 260 260 260 260 260 261 262 262 263 263 263 264 265 266 266 267 268 268 268 269 268 268 269 269 269 270 270 269 269 270 270 271 271 272 273 274 275 276 276
264 263 263 262 262 261 260 258 257 257 257 257 257 257 258 258 259 260 260 261 261 261 261 260 259 259 258 259 259 259 259 260 260 260 259 259 258 257 256 256 255 255 255 256 256 257 258 259 260 260 260 260 261 261 261 262 262 263 263 264 265 265 266 267 267 267 268 268 268 268 269 269 269 268 268 269 269 270 271 272 273 274 275 276 276
266 265 264 263 262 262 261 260 259 258 257 257 256 256 256 257 257 258 259 260 260 261 261 261 260 259 258 258 258 258 258 258 259 260 260 260 259 258 257 256 256 256 255 255 255 256 257 258 258 259 259 260 260 260 260 260 261 261 262 262 263 264 264 265 266 266 266 267 267 268 269 269 269 268 268 268 268 269 270 271 272 274 274 275 275
267 267 266 265 264 262 261 260 260 259 258 258 257 257 256 256 256 257 257 258 259 259 260 261 261 261 260 259 259 258 258 258 257 258 259 259 259 259 258 257 257 256 256 255 255 256 256 256 257 258 258 258 258 259 259 260 261 261 262 262 263 263 264 264 265 265 266 266 267 268 269 270 270 270 270 270 270 270 270 271 272 273 273 273 273
268 268 267 266 265 264 263 261 260 259 258 258 257 257 257 256 256 256 256 256 257 257 257 258 259 260 261 261 260 259 258 258 258 258 258 258 258 258 258 258 258 257 257 256 256 256 256 256 256 257 257 258 258 258 259 260 261 262 262 263 263 264 264 264 265 265 266 266 267 268 269 270 271 271 272 272 272 272 272 272 272 272 271 271 271
269 268 267 266 266 265 264 263 262 261 260 258 257 257 257 257 256 256 256 256 256 256 256 256 257 257 259 260 260 259 258 257 257 258 258 258 258 258 258 258 258 258 258 257 257 257 257 256 256 257 257 257 258 259 260 261 261 262 263 264 264 264 264 264 265 265 266 266 267 268 268 270 271 271 272 273 274 273 273 272 272 272 271 271 271
269 268 268 267 266 265 264 264 263 262 262 261 259 258 257 257 256 256 256 257 256 256 256 256 256 256 256 257 258 259 258 257 256 257 257 258 258 258 259 258 258 258 258 258 258 258 257 257 257 257 257 257 258 259 260 260 261 262 263 263 264 264 264 264 265 265 265 266 267 267 268 269 270 272 273 273 274 273 273 273 273 273 273 273 272
269 268 268 267 266 265 264 264 263 263 262 262 261 260 259 258 257 256 256 256 256 256 256 256 256 256 256 256 256 257 258 258 257 256 256 256 257 258 258 258 258 258 258 258 258 258 258 257 257 257 257 257 258 258 259 259 260 260 261 262 262 263 263 264 264 265 266 266 267 268 268 269 270 272 272 273 273 273 273 274 274 274 274 274 274
270 269 268 268 267 267 266 265 264 264 263 263 262 261 261 260 259 258 257 256 256 256 256 256 256 256 256 255 255 256 257 258 258 257 256 255 256 256 257 257 257 258 258 258 258 258 258 258 257 257 257 257 257 257 257 258 258 259 259 260 261 261 262 263 264 265 266 266 267 268 268 269 270 271 271 272 273 273 274 274 274 274 274 274 274
271 270 269 269 268 268 267 266 266 265 264 263 262 261 260 260 259 259 258 258 257 256 255 255 255 256 256 256 255 255 255 257 258 259 258 257 256 256 256 256 256 256 257 257 257 257 257 258 258 258 258 258 258 258 257 258 258 258 258 259 260 261 261 262 263 264 265 266 266 267 268 268 269 270 271 272 273 274 274 274 274 274 274 274 274
271 270 270 269 268 267 267 266 266 266 265 264 263 262 260 259 259 258 258 258 257 257 256 255 255 255 255 255 255 255 255 255 257 258 259 259 258 257 256 256 256 256 256 256 256 257 257 257 257 258 258 259 259 259 258 259 259 259 260 260 261 261 262 263 263 264 265 266 266 267 268 268 269 270 271 272 273 274 274 273 273 274 274 274 275
271 271 270 269 268 268 267 267 266 266 265 265 264 263 262 260 259 258 258 257 257 256 256 255 255 254 254 254 254 254 254 255 255 256 258 259 259 258 257 256 256 256 256 256 256 256 256 256 256 256 256 257 258 259 259 260 260 261 261 261 262 262 263 264 264 264 265 266 266 267 268 268 268 269 270 271 272 272 273 273 274 274 274 275 275
273 272 271 270 269 269 268 267 267 266 265 265 265 264 263 262 261 260 259 259 258 257 256 256 255 254 253 253 253 253 254 254 254 255 255 256 258 258 258 258 257 256 255 255 255 255 255 255 255 256 256 256 257 258 259 260 260 261 261 262 262 263 263 264 264 265 265 266 266 266 266 267 268 269 270 271 271 272 273 273 274 274 275 275 276
274 273 272 271 270 270 269 268 267 266 266 265 265 264 264 264 263 262 261 260 259 258 257 257 256 255 254 253 252 252 253 253 253 254 254 255 256 257 258 258 257 256 255 254 254 254 254 255 255 256 256 256 256 257 258 259 259 260 261 261 262 262 263 263 264 265 265 266 266 266 266 267 268 269 270 270 271 272 272 273 273 274 275 275 275
275 274 273 272 271 270 269 268 268 267 266 265 265 264 264 263 263 263 262 261 261 260 259 258 257 256 255 254 253 252 252 252 252 253 254 254 255 255 256 256 256 256 256 255 254 253 254 254 255 255 255 256 256 257 258 258 259 260 260 261 262 262 263 263 264 265 265 265 266 266 266 267 268 268 269 269 270 271 271 272 273 274 274 275 275
276 275 274 273 272 271 270 269 269 268 267 266 265 265 264 264 263 262 262 261 261 261 260 258 257 257 256 256 254 253 253 252 252 253 254 254 254 255 255 255 255 255 255 255 254 254 254 254 255 255 255 256 257 257 258 258 259 259 260 261 261 262 263 263 264 264 264 264 265 266 266 267 267 267 268 269 270 271 272 272 273 274 274 275 276
275 275 274 274 273 273 272 271 270 269 269 268 267 266 265 265 264 263 262 261 261 261 261 259 258 257 257 257 256 254 254 253 253 253 254 254 254 255 255 255 255 255 255 255 255 254 254 255 255 256 256 256 257 257 258 258 258 259 259 260 261 261 262 263 263 263 263 263 264 265 266 266 266 267 268 269 270 271 272 273 273 274 274 275 276
276 275 274 274 273 273 272 272 271 271 271 270 269 269 267 266 266 265 263 261 260 260 260 260 258 257 256 256 256 255 255 254 254 254 254 254 255 255 255 255 255 255 256 256 256 256 256 256 256 256 256 256 257 257 258 258 258 258 259 259 260 260 261 261 262 262 262 263 264 264 265 265 266 267 268 269 270 271 272 273 273 274 274 275 276
276 275 274 273 273 272 272 272 272 271 271 271 270 270 269 268 267 266 265 263 261 259 259 259 259 257 256 255 255 255 254 254 255 255 255 255 255 255 255 255 255 256 257 257 257 257 257 257 257 257 257 256 256 257 257 257 258 258 258 259 259 259 260 260 261 261 262 263 263 264 265 266 267 267 268 269 270 271 272 273 274 274 275 276 276
277 276 275 274 273 272 272 272 271 271 270 270 269 269 269 269 268 267 267 266 264 262 259 258 258 257 257 255 254 254 253 253 254 255 255 255 255 256 256 256 256 257 257 257 256 256 256 256 256 256 257 256 256 255 255 256 257 257 258 258 259 259 259 259 260 260 262 263 264 264 265 266 267 268 269 269 270 271 272 273 274 275 276 277 277
279 278 277 276 274 273 272 272 271 270 270 269 269 268 268 268 268 268 268 267 266 265 262 260 258 257 256 256 255 253 253 252 253 254 255 256 255 256 257 257 257 257 257 257 256 255 255 255 256 256 256 257 256 256 256 256 256 257 258 258 258 258 259 259 260 260 262 263 263 264 265 266 267 268 269 269 270 271 271 272 273 275 276 277 278
280 280 279 278 277 275 273 272 271 270 270 269 269 269 269 268 268 268 267 267 267 266 264 262 259 257 255 255 255 254 253 252 252 253 255 256 256 256 256 257 257 257 257 256 256 255 254 255 255 256 256 256 256 256 256 256 256 257 258 258 259 259 259 259 260 261 262 262 263 264 265 266 267 268 269 269 270 271 272 273 273 274 275 276 277
281 280 280 279 278 276 274 273 271 270 270 270 269 269 269 268 268 267 267 267 266 266 265 263 261 258 255 254 254 254 253 252 252 253 254 255 256 256 255 254 254 255 255 255 255 254 254 253 254 254 255 255 256 256 256 256 256 256 257 258 259 259 259 260 260 261 262 262 263 264 265 265 266 267 268 269 270 271 272 273 273 274 275 275 276
281 281 280 279 278 277 275 274 272 271 270 270 269 269 269 268 268 267 266 266 265 265 264 263 261 259 257 255 254 254 253 252 252 251 252 253 254 254 253 252 252 253 253 253 253 253 253 253 253 254 254 254 255 255 255 255 255 256 256 257 258 259 259 260 260 261 261 262 263 264 265 265 266 267 268 269 270 271 271 272 273 274 275 275 276
282 281 280 279 277 276 275 274 273 271 270 269 269 269 268 268 267 267 266 265 264 263 263 263 261 259 258 255 254 253 252 251 250 249 249 250 251 252 252 252 252 252 253 253 252 252 251 252 252 253 253 253 253 254 254 254 255 255 255 256 257 258 259 260 260 261 261 262 263 264 265 265 266 266 267 268 269 270 271 272 273 274 274 275 276
283 282 281 280 278 276 275 274 273 272 271 270 269 268 268 268 268 267 266 264 263 262 262 261 261 260 258 256 254 253 251 250 249 248 248 249 249 250 251 251 251 252 252 252 252 251 250 250 251 252 252 252 253 253 254 255 256 256 257 257 258 258 259 259 260 261 261 262 263 264 264 265 266 266 267 268 269 270 270 271 272 273 274 274 275
283 283 282 281 280 278 276 275 274 272 271 270 269 268 268 268 267 267 266 265 264 262 261 261 260 260 259 257 255 253 252 251 250 249 248 248 248 249 250 250 250 250 250 250 250 250 249 248 249 250 252 253 254 255 256 257 258 259 259 259 259 259 259 259 260 261 262 262 263 264 265 265 266 266 267 267 268 269 270 271 271 272 273 274 275
284 283 282 281 280 279 278 277 275 274 272 271 270 269 268 268 267 267 266 266 265 263 262 261 260 259 259 257 256 254 252 251 250 249 249 248 248 248 249 249 249 249 249 249 249 249 249 249 249 250 252 254 256 257 258 259 260 260 260 260 260 260 260 261 261 261 261 261 262 263 264 264 265 265 266 266 267 268 269 270 271 272 273 274 275
285 284 283 282 281 280 279 279 277 276 274 273 271 270 269 268 267 266 266 265 265 264 263 262 261 260 259 258 256 255 254 252 251 250 249 249 248 248 248 248 248 248 248 248 248 249 249 249 249 250 251 254 256 257 258 259 259 259 259 259 259 260 260 261 261 261 261 261 261 261 262 262 263 264 265 266 267 268 269 270 271 272 273 274 274
285 285 284 283 282 281 280 279 279 278 277 275 273 272 270 269 267 266 265 265 264 263 262 262 261 260 259 258 257 255 254 253 252 250 250 249 248 247 247 247 246 246 246 246 246 247 248 248 249 250 251 252 253 254 254 255 256 256 256 256 257 258 258 259 260 260 261 262 262 262 262 262 263 264 264 265 266 267 268 269 270 271 272 273 273
285 285 285 285 284 282 281 279 279 278 277 276 275 273 272 270 269 267 265 264 263 263 262 261 260 260 259 258 257 256 254 253 252 251 250 249 248 248 247 246 245 245 244 244 245 245 246 247 248 248 249 250 250 250 251 251 252 253 254 254 254 255 256 257 259 259 260 261 262 262 263 263 264 264 265 265 266 267 268 268 269 270 271 271 272
287 287 286 286 285 284 283 281 279 278 278 277 276 275 274 272 270 269 267 265 263 262 262 261 260 260 259 258 257 256 255 253 252 251 250 249 248 247 247 246 245 244 244 243 243 244 245 246 247 247 248 248 249 249 250 251 251 252 253 253 254 255 256 257 258 259 260 260 261 262 263 263 264 265 265 266 266 267 267 268 269 269 270 271 272
287 287 287 287 287 286 285 283 282 280 279 278 277 276 275 274 272 270 269 267 265 263 262 261 260 260 259 258 257 256 255 254 253 252 250 249 248 248 247 247 246 246 245 244 243 243 244 245 246 247 247 248 248 249 250 251 252 252 253 253 254 255 256 257 257 258 259 260 260 261 262 263 264 264 265 266 266 267 268 268 269 269 270 271 272
288 287 287 287 287 287 286 286 284 283 281 279 277 276 275 274 273 272 270 268 266 265 263 262 261 260 259 258 258 257 256 255 253 252 251 250 249 248 248 247 246 246 246 245 245 245 245 245 245 246 247 248 248 249 249 250 251 252 252 253 253 254 255 256 256 257 258 259 260 260 261 262 263 264 265 265 266 267 267 268 269 270 271 271 272
289 288 287 286 286 285 286 285 285 284 283 281 278 277 275 274 273 272 270 269 267 266 264 262 261 259 259 258 258 257 256 255 254 253 252 251 250 249 248 248 247 246 246 246 246 246 246 246 246 247 248 248 249 249 249 250 250 251 252 252 253 253 254 255 256 257 257 258 259 260 261 262 263 263 264 265 266 267 267 268 269 270 271 272 272
291 290 289 288 287 285 284 284 283 283 282 281 279 277 275 273 272 271 270 268 267 266 265 263 261 259 258 257 256 256 256 255 254 253 252 251 250 250 249 249 248 248 247 247 246 246 247 247 248 248 248 249 249 250 250 251 251 252 252 253 253 254 254 255 256 257 258 259 260 261 261 262 263 264 264 265 266 266 267 268 269 270 270 271 271
Height
10485 10483 10483 10484 10484 10484 10484 10486 10487 10488 10489 10488 10489 10490 10490 10490 10490 10491 10492 10492 10493 10494 10495 10496 10497 10498 10499 10500 10500 10501 10501 10502 10501 10502 10503 10505 10505 10505 10505 10504 10505 10505 10505 10505 10505 10505 10506 10506 10506 10505 10504 10505 10507 10508 10509 10509 10510 10510 10509 10508 10508 10509 10509 10511 10514 10515 10514 10513 10514 10515 10515 10516 10516 10516 10516 10516 10515 10514 10513 10511 10509 10508 10508 10507 10506
10467 10465 10463 10462 10462 10463 10464 10465 10466 10467 10468 10468 10468 10469 10470 10471 10472 10473 10473 10473 10474 10476 10477 10478 10479 10481 10483 10484 10484 10484 10485 10485 10485 10486 10488 10489 10490 10489 10489 10489 10489 10490 10491 10491 10491 10490 10491 10492 10493 10492 10491 10491 10493 10495 10495 10496 10496 10497 10496 10494 10493 10493 10494 10496 10499 10502 10501 10499 10500 10501 10501 10502 10502 10501 10502 10502 10501 10500 10499 10497 10495 10494 10493 10493 10492
10448 10447 10445 10442 10440 10440 10441 10443 10444 10445 10446 10447 10447 10448 10449 10451 10452 10453 10454 10454 10455 10456 10457 10459 10460 10462 10464 10466 10467 10467 10468 10468 10468 10470 10471 10473 10474 10474 10474 10474 10475 10476 10476 10476 10476 10475 10477 10478 10479 10478 10476 10477 10478 10480 10481 10482 10482 10483 10482 10480 10479 10478 10477 10480 10483 10486 10486 10485 10486 10487 10487 10487 10487 10487 10486 10486 10485 10485 10484 10482 10480 10478 10478 10478 10478
10425 10425 10425 10424 10422 10419 10418 10418 10420 10422 10424 10425 10426 10427 10428 10429 10430 10432 10433 10434 10435 10436 10438 10439 10440 10442 10444 10446 10447 10448 10449 10450 10451 10453 10454 10456 10457 10457 10457 10457 10459 10460 10461 10461 10461 10461 10462 10464 10464 10463 10461 10461 10463 10466 10467 10467 10466 10467 10467 10466 10466 10464 10462 10463 10467 10470 10472 10471 10471 10472 10473 10473 10473 10472 10471 10471 10470 10469 10468 10466 10464 10463 10462 10462 10463
10401 10401 10402 10402 10402 10401 10399 10397 10397 10398 10400 10403 10404 10405 10407 10408 10408 10410 10411 10413 10414 10416 10418 10419 10420 10422 10424 10425 10427 10428 10430 10431 10433 10435 10437 10438 10439 10439 10440 10440 10442 10443 10445 10445 10445 10445 10446 10448 10449 10447 10445 10446 10450 10452 10452 10451 10451 10451 10452 10452 10451 10450 10449 10449 10451 10454 10456 10457 10456 10456 10457 10458 10459 10458 10456 10455 10454 10453 10452 10450 10448 10446 10446 10446 10447
10378 10378 10379 10379 10380 10380 10380 10379 10378 10377 10377 10379 10381 10383 10385 10387 10388 10388 10388 10390 10393 10395 10397 10398 10399 10401 10403 10404 10406 10408 10409 10411 10413 10416 10418 10419 10420 10421 10421 10422 10423 10425 10427 10427 10428 10428 10430 10432 10432 10431 10431 10433 10435 10437 10436 10436 10435 10435 10436 10436 10435 10435 10436 10436 10437 10437 10439 10441 10441 10440 10441 10442 10443 10444 10442 10440 10439 10437 10436 10434 10432 10430 10430 10430 10430
10356 10356 10356 10356 10357 10358 10359 10359 10359 10359 10358 10358 10359 10360 10362 10364 10366 10367 10368 10369 10371 10373 10375 10376 10378 10379 10380 10382 10385 10388 10390 10391 10393 10396 10397 10399 10400 10401 10402 10404 10405 10406 10408 10409 10410 10411 10413 10414 10415 10415 10417 10419 10420 10420 10420 10419 10419 10419 10420 10420 10419 10419 10421 10422 10422 10421 10422 10423 10425 10425 10425 10426 10428 10428 10427 10424 10423 10422 10420 10418 10417 10415 10413 10413 10414
10337 10335 10334 10335 10335 10335 10336 10337 10338 10339 10340 10341 10342 10341 10341 10342 10343 10345 10347 10348 10350 10352 10353 10354 10356 10357 10358 10359 10361 10364 10369 10372 10373 10374 10376 10378 10380 10382 10383 10384 10385 10387 10389 10391 10392 10394 10396 10398 10399 10400 10402 10403 10403 10402 10402 10402 10403 10403 10404 10404 10403 10403 10405 10406 10406 10406 10406 10407 10408 10408 10408 10409 10411 10412 10411 10408 10407 10406 10404 10402 10402 10401 10398 10397 10398
10319 10317 10315 10314 10314 10314 10315 10316 10317 10318 10319 10321 10323 10324 10324 10323 10323 10324 10325 10327 10329 10331 10333 10334 10336 10337 10338 10338 10339 10340 10344 10349 10351 10352 10354 10357 10360 10362 10363 10364 10366 10367 10370 10373 10373 10375 10379 10382 10383 10384 10384 10385 10384 10384 10385 10386 10386 10387 10389 10388 10387 10387 10389 10390 10390 10391 10391 10391 10392 10391 10390 10391 10392 10393 10394 10393 10391 10390 10389 10387 10387 10387 10384 10382 10381
10300 10299 10297 10296 10294 10293 10294 10295 10297 10298 10298 10300 10302 10304 10305 10306 10306 10306 10306 10307 10308 10310 10312 10315 10317 10319 10320 10320 10320 10322 10324 10326 10327 10328 10331 10334 10337 10341 10343 10344 10346 10348 10351 10353 10355 10357 10361 10365 10367 10368 10366 10366 10367 10367 10368 10369 10369 10370 10371 10371 10370 10371 10372 10372 10374 10375 10375 10375 10375 10374 10374 10375 10375 10374 10375 10376 10375 10375 10375 10373 10372 10372 10370 10366 10365
10283 10281 10280 10280 10278 10276 10274 10274 10275 10276 10278 10279 10282 10284 10285 10286 10287 10288 10288 10289 10289 10290 10291 10294 10297 10299 10301 10303 10304 10306 10308 10309 10308 10309 10311 10313 10315 10319 10321 10324 10326 10329 10332 10335 10337 10340 10342 10345 10349 10349 10348 10350 10351 10350 10350 10351 10352 10352 10353 10353 10354 10354 10354 10355 10357 10358 10358 10358 10358 10357 10358 10359 10358 10357 10358 10359 10359 10359 10359 10358 10357 10357 10355 10351 10348
10265 10264 10263 10263 10263 10261 10258 10257 10257 10256 10257 10258 10260 10262 10265 10267 10268 10269 10270 10271 10272 10273 10273 10274 10276 10278 10280 10284 10286 10288 10292 10293 10292 10293 10295 10295 10297 10299 10301 10304 10307 10310 10314 10318 10320 10322 10323 10326 10329 10330 10331 10333 10334 10334 10333 10334 10335 10335 10335 10336 10337 10336 10337 10338 10340 10341 10343 10343 10341 10341 10342 10342 10341 10341 10341 10342 10343 10343 10343 10344 10343 10342 10340 10336 10333
10245 10245 10245 10245 10245 10245 10244 10242 10241 10239 10238 10238 10237 10240 10243 10246 10248 10249 10251 10253 10254 10255 10256 10257 10258 10259 10261 10264 10266 10268 10272 10274 10273 10276 10278 10279 10280 10281 10282 10286 10289 10292 10296 10299 10302 10304 10305 10307 10309 10313 10314 10314 10315 10318 10319 10319 10318 10318 10318 10319 10320 10320 10320 10321 10323 10325 10327 10328 10327 10326 10326 10324 10325 10327 10326 10326 10327 10327 10326 10327 10328 10328 10327 10323 10320
10224 10225 10226 10226 10226 10226 10226 10226 10225 10223 10222 10220 10219 10219 10220 10223 10226 10228 10230 10233 10235 10236 10237 10239 10241 10242 10243 10245 10247 10250 10252 10253 10253 10256 10260 10261 10263 10264 10266 10268 10272 10275 10278 10281 10283 10286 10288 10289 10291 10295 10297 10296 10298 10301 10302 10303 10302 10302 10301 10302 10303 10304 10304 10305 10308 10310 10312 10311 10311 10310 10309 10308 10311 10313 10312 10311 10311 10311 10310 10310 10312 10313 10312 10309 10308
10203 10203 10205 10207 10207 10207 10207 10208 10208 10206 10205 10204 10203 10202 10201 10202 10203 10204 10208 10212 10214 10217 10219 10220 10223 10225 10226 10227 10230 10233 10234 10233 10233 10236 10240 10242 10243 10245 10249 10252 10255 10259 10262 10264 10266 10268 10270 10271 10274 10278 10280 10281 10282 10284 10285 10286 10286 10285 10285 10286 10287 10288 10289 10291 10294 10296 10296 10295 10293 10292 10292 10293 10296 10298 10298 10296 10295 10295 10295 10294 10295 10297 10297 10296 10296
10183 10182 10184 10187 10188 10187 10188 10189 10189 10188 10187 10187 10186 10185 10184 10184 10184 10183 10186 10189 10192 10195 10199 10202 10204 10206 10208 10209 10211 10215 10216 10214 10214 10217 10219 10222 10224 10227 10231 10234 10238 10242 10246 10248 10249 10250 10251 10253 10256 10260 10263 10266 10267 10267 10269 10270 10269 10269 10271 10271 10272 10273 10275 10277 10279 10280 10281 10279 10277 10276 10277 10278 10280 10282 10283 10282 10281 10281 10281 10280 10279 10280 10281 10282 10283
10162 10163 10166 10169 10168 10167 10167 10169 10170 10170 10169 10168 10169 10169 10168 10168 10166 10165 10165 10168 10171 10173 10176 10181 10185 10188 10190 10191 10193 10196 10199 10197 10195 10197 10199 10201 10205 10209 10213 10217 10220 10225 10229 10231 10232 10233 10235 10236 10238 10242 10246 10250 10252 10252 10252 10253 10253 10253 10256 10257 10258 10260 10261 10262 10263 10264 10265 10264 10262 10261 10261 10262 10265 10267 10268 10267 10267 10267 10267 10266 10264 10264 10265 10267 10267
10141 10145 10149 10151 10150 10149 10148 10148 10149 10150 10150 10150 10150 10151 10152 10151 10151 10149 10148 10150 10153 10154 10154 10158 10163 10167 10170 10173 10175 10177 10182 10183 10179 10178 10180 10181 10184 10190 10195 10199 10203 10207 10211 10214 10215 10217 10221 10221 10222 10226 10230 10233 10234 10234 10234 10236 10236 10238 10241 10242 10243 10246 10248 10247 10247 10248 10248 10247 10246 10245 10244 10245 10247 10251 10253 10252 10253 10255 10254 10252 10251 10251 10252 10253 10251
10123 10127 10130 10130 10130 10129 10128 10127 10128 10129 10130 10130 10131 10133 10134 10134 10134 10134 10133 10135 10137 10139 10138 10139 10142 10146 10149 10153 10156 10159 10163 10166 10164 10162 10164 10164 10165 10170 10175 10180 10186 10191 10193 10195 10197 10201 10205 10206 10207 10211 10214 10216 10216 10216 10217 10219 10220 10222 10224 10226 10229 10233 10233 10230 10229 10232 10232 10231 10231 10230 10228 10227 10229 10234 10236 10236 10239 10243 10241 10239 10239 10240 10240 10239 10237
10107 10109 10109 10109 10107 10106 10105 10105 10106 10107 10108 10110 10111 10112 10114 10115 10116 10116 10117 10119 10121 10123 10124 10124 10126 10128 10129 10131 10136 10140 10144 10146 10146 10145 10147 10148 10149 10153 10157 10162 10169 10173 10174 10177 10181 10185 10189 10191 10193 10196 10197 10198 10199 10200 10201 10203 10205 10205 10207 10210 10216 10218 10214 10211 10212 10215 10215 10215 10216 10215 10213 10212 10214 10217 10218 10219 10223 10227 10226 10225 10226 10226 10225 10224 10223
10091 10089 10089 10088 10086 10084 10082 10081 10083 10084 10085 10088 10091 10094 10095 10095 10096 10098 10099 10100 10103 10105 10108 10109 10111 10114 10114 10112 10115 10120 10124 10127 10128 10128 10129 10130 10131 10134 10140 10147 10151 10153 10156 10161 10166 10170 10173 10175 10178 10180 10179 10181 10183 10184 10185 10188 10189 10190 10192 10196 10199 10198 10195 10195 10197 10198 10199 10200 10201 10201 10200 10199 10199 10200 10201 10203 10206 10209 10210 10210 10210 10209 10209 10209 10208
10072 10070 10070 10068 10066 10064 10062 10060 10062 10063 10064 10065 10069 10075 10077 10076 10076 10079 10079 10080 10083 10085 10089 10092 10093 10098 10100 10098 10098 10101 10104 10107 10111 10112 10112 10113 10113 10116 10122 10130 10134 10135 10140 10146 10150 10154 10156 10158 10161 10162 10161 10163 10166 10168 10169 10171 10173 10176 10178 10180 10180 10180 10179 10180 10180 10181 10183 10185 10186 10187 10186 10185 10184 10185 10186 10186 10187 10190 10193 10195 10194 10194 10194 10194 10193
10053 10052 10051 10049 10046 10045 10043 10043 10043 10044 10046 10046 10048 10054 10058 10057 10057 10059 10059 10060 10063 10065 10069 10072 10073 10077 10082 10082 10082 10083 10083 10085 10091 10095 10096 10097 10098 10100 10106 10113 10116 10118 10124 10130 10134 10136 10138 10141 10143 10143 10143 10145 10149 10152 10153 10155 10158 10163 10164 10163 10163 10163 10164 10164 10164 10165 10168 10171 10172 10173 10172 10171 10169 10169 10169 10169 10171 10174 10178 10180 10179 10179 10179 10179 10177
10035 10035 10034 10031 10029 10027 10026 10026 10027 10028 10029 10029 10031 10035 10039 10038 10037 10039 10039 10040 10044 10047 10050 10052 10053 10057 10061 10063 10065 10066 10065 10063 10067 10073 10078 10080 10082 10085 10090 10096 10099 10102 10107 10112 10115 10118 10121 10123 10123 10124 10125 10129 10133 10135 10137 10139 10143 10148 10149 10148 10147 10148 10148 10149 10150 10152 10154 10157 10158 10158 10158 10156 10154 10153 10153 10153 10156 10160 10163 10164 10164 10164 10164 10163 10161
10019 10019 10017 10015 10013 10010 10009 10010 10011 10010 10011 10011 10013 10017 10020 10019 10019 10020 10020 10020 10024 10029 10032 10035 10036 10038 10042 10044 10047 10049 10048 10046 10046 10050 10055 10060 10064 10068 10073 10077 10081 10085 10089 10094 10097 10100 10103 10105 10105 10107 10108 10112 10115 10117 10120 10124 10126 10130 10133 10133 10131 10132 10135 10135 10136 10138 10140 10142 10143 10143 10142 10140 10138 10137 10137 10139 10143 10146 10147 10147 10147 10147 10147 10146 10144
10003 10002 10000 9997 9995 9993 9992 9994 9994 9992 9992 9992 9994 9998 10000 10000 10001 10002 10001 10002 10005 10008 10012 10016 10019 10020 10024 10027 10029 10030 10031 10030 10030 10031 10033 10037 10044 10050 10053 10057 10061 10066 10072 10077 10079 10083 10087 10088 10089 10091 10092 10093 10096 10100 10104 10107 10108 10111 10117 10117 10115 10117 10121 10121 10121 10124 10125 10125 10126 10126 10126 10125 10123 10121 10123 10126 10128 10130 10129 10129 10130 10131 10131 10130 10128
9987 9987 9983 9980 9978 9977 9977 9979 9979 9977 9975 9975 9976 9979 9981 9981 9982 9984 9984 9984 9986 9989 9992 9996 10000 10003 10006 10009 10011 10012 10014 10015 10016 10016 10016 10018 10023 10027 10031 10036 10042 10048 10055 10061 10062 10064 10068 10070 10071 10074 10076 10077 10080 10084 10088 10091 10092 10096 10102 10102 10099 10103 10107 10105 10105 10108 10109 10109 10111 10112 10112 10109 10107 10107 10110 10112 10112 10111 10111 10112 10114 10115 10114 10114 10113
9971 9970 9967 9963 9963 9963 9962 9963 9964 9962 9960 9959 9959 9961 9963 9963 9964 9968 9970 9968 9968 9971 9974 9978 9982 9986 9989 9992 9994 9995 9997 10000 10001 10001 10000 10001 10003 10005 10010 10018 10026 10030 10035 10041 10043 10044 10048 10051 10054 10057 10061 10064 10067 10070 10073 10075 10077 10082 10087 10086 10085 10088 10091 10089 10088 10091 10092 10094 10096 10097 10095 10092 10091 10094 10097 10096 10095 10095 10096 10096 10097 10098 10098 10097 10097
9954 9953 9951 9949 9950 9949 9948 9948 9947 9946 9945 9944 9944 9945 9946 9946 9947 9952 9955 9952 9951 9954 9957 9961 9966 9969 9971 9975 9978 9979 9982 9985 9984 9981 9982 9985 9987 9989 9994 10000 10006 10009 10014 10021 10026 10028 10030 10035 10039 10042 10046 10050 10053 10055 10058 10060 10062 10066 10070 10070 10071 10073 10074 10073 10073 10075 10076 10077 10078 10078 10077 10077 10080 10082 10082 10080 10079 10080 10080 10080 10080 10082 10083 10082 10081
9938 9936 9934 9935 9935 9935 9933 9932 9931 9929 9930 9929 9929 9929 9930 9930 9931 9935 9938 9935 9933 9937 9942 9946 9950 9950 9953 9959 9963 9963 9967 9969 9965 9961 9965 9969 9971 9974 9979 9982 9986 9990 9993 9999 10007 10012 10015 10019 10024 10028 10031 10034 10037 10040 10043 10045 10047 10051 10054 10055 10056 10057 10057 10057 10058 10060 10060 10060 10060 10060 10062 10064 10067 10067 10065 10063 10064 10065 10064 10065 10066 10066 10066 10066 10066
9924 9921 9919 9920 9920 9919 9919 9918 9916 9915 9915 9915 9915 9915 9915 9914 9916 9919 9921 9920 9918 9921 9927 9932 9934 9933 9936 9942 9946 9947 9951 9953 9948 9946 9950 9952 9953 9957 9962 9965 9968 9972 9974 9978 9987 9997 10001 10004 10008 10013 10016 10019 10023 10026 10027 10029 10032 10035 10037 10039 10040 10041 10041 10043 10044 10044 10043 10042 10043 10045 10048 10050 10051 10050 10049 10049 10049 10049 10049 10050 10051 10050 10050 10050 10050
9911 9908 9906 9907 9906 9905 9904 9903 9902 9901 9901 9901 9901 9902 9902 9901 9901 9903 9906 9907 9907 9908 9911 9916 9919 9920 9921 9925 9928 9931 9934 9936 9933 9932 9935 9937 9937 9940 9944 9947 9951 9954 9956 9961 9972 9982 9986 9989 9994 9998 10001 10003 10006 10008 10011 10013 10015 10018 10020 10023 10025 10025 10026 10027 10027 10026 10025 10028 10030 10033 10034 10035 10034 10035 10034 10034 10035 10034 10034 10035 10035 10035 10035 10035 10035
9898 9896 9894 9895 9894 9891 9890 9890 9888 9888 9889 9888 9888 9888 9889 9889 9889 9887 9889 9893 9895 9896 9897 9899 9904 9907 9908 9910 9913 9916 9918 9918 9918 9919 9922 9923 9924 9926 9927 9931 9934 9937 9939 9948 9960 9968 9971 9975 9979 9981 9983 9986 9989 9991 9994 9996 9998 10000 10003 10007 10009 10010 10011 10011 10009 10008 10011 10015 10017 10019 10019 10019 10020 10021 10020 10020 10020 10019 10020 10020 10020 10020 10020 10020 10019
9884 9883 9882 9883 9882 9879 9878 9877 9876 9876 9876 9876 9875 9874 9874 9875 9876 9874 9874 9876 9880 9884 9885 9886 9889 9893 9896 9898 9900 9902 9903 9903 9902 9905 9908 9910 9911 9912 9913 9917 9922 9925 9929 9939 9949 9955 9957 9960 9963 9964 9966 9970 9974 9975 9977 9979 9980 9981 9985 9988 9991 9994 9996 9995 9993 9993 9996 9999 10002 10003 10004 10005 10006 10007 10007 10006 10006 10005 10005 10005 10004 10004 10004 10003 10003
9871 9870 9870 9870 9869 9868 9867 9866 9865 9864 9863 9863 9862 9861 9861 9861 9862 9862 9862 9862 9866 9869 9872 9874 9877 9879 9882 9884 9886 9888 9889 9889 9888 9889 9892 9896 9898 9899 9900 9906 9913 9916 9920 9928 9936 9941 9942 9944 9946 9948 9950 9953 9956 9958 9960 9962 9963 9964 9966 9970 9974 9978 9979 9979 9978 9979 9982 9984 9986 9988 9990 9991 9991 9992 9992 9992 9992 9992 9991 9991 9990 9988 9987 9986 9985
9858 9858 9857 9857 9857 9857 9856 9855 9853 9851 9850 9850 9849 9849 9850 9850 9850 9851 9851 9851 9853 9855 9858 9862 9866 9867 9869 9871 9872 9874 9877 9877 9877 9876 9877 9881 9885 9886 9889 9896 9902 9904 9907 9914 9921 9926 9929 9929 9931 9934 9936 9937 9939 9942 9945 9946 9947 9947 9949 9953 9957 9961 9962 9964 9965 9967 9969 9970 9971 9973 9975 9976 9976 9977 9977 9976 9976 9977 9977 9977 9976 9975 9973 9971 9969
9847 9846 9845 9845 9845 9845 9844 9843 9842 9840 9839 9838 9838 9837 9838 9839 9839 9840 9840 9840 9841 9842 9844 9848 9852 9855 9857 9858 9859 9862 9865 9866 9866 9866 9865 9867 9871 9875 9881 9886 9888 9888 9892 9899 9906 9912 9915 9916 9916 9918 9920 9920 9921 9924 9927 9929 9930 9931 9933 9937 9941 9944 9947 9950 9952 9954 9956 9956 9957 9959 9960 9961 9961 9961 9961 9961 9961 9962 9962 9962 9962 9961 9959 9957 9955
9837 9835 9834 9833 9833 9833 9832 9831 9831 9830 9829 9828 9827 9827 9827 9827 9828 9828 9829 9830 9830 9831 9832 9834 9837 9841 9844 9846 9847 9850 9852 9854 9856 9857 9856 9856 9859 9864 9869 9871 9872 9874 9878 9884 9890 9897 9901 9902 9901 9902 9904 9904 9905 9906 9907 9909 9912 9916 9920 9922 9924 9928 9933 9936 9939 9941 9942 9942 9943 9944 9946 9946 9946 9946 9946 9947 9947 9948 9948 9947 9946 9946 9945 9943 9942
9827 9826 9824 9823 9822 9821 9819 9819 9820 9820 9819 9818 9817 9816 9816 9816 9816 9817 9818 9819 9820 9820 9821 9823 9825 9827 9831 9834 9836 9838 9841 9844 9846 9847 9845 9845 9848 9851 9853 9854 9857 9860 9864 9870 9877 9884 9887 9888 9888 9888 9889 9889 9889 9888 9889 9891 9895 9901 9906 9908 9911 9915 9920 9922 9924 9926 9926 9927 9929 9930 9931 9932 9933 9932 9932 9933 9933 9934 9933 9933 9932 9931 9930 9929 9928
9817 9815 9815 9814 9812 9810 9809 9808 9808 9809 9809 9808 9807 9806 9806 9806 9806 9806 9807 9809 9810 9810 9810 9811 9813 9815 9819 9822 9825 9827 9829 9831 9833 9833 9833 9833 9835 9837 9837 9840 9845 9848 9851 9857 9865 9870 9873 9874 9873 9873 9873 9873 9870 9869 9871 9874 9880 9887 9893 9897 9900 9904 9906 9908 9910 9911 9912 9914 9916 9917 9918 9919 9919 9919 9919 9919 9919 9919 9919 9919 9918 9917 9916 9915 9914
9807 9806 9805 9804 9803 9801 9800 9798 9798 9798 9798 9798 9798 9797 9796 9796 9796 9796 9797 9798 9799 9800 9800 9801 9802 9804 9807 9810 9813 9815 9816 9818 9819 9821 9822 9822 9823 9824 9825 9829 9834 9838 9841 9845 9849 9854 9858 9859 9857 9856 9856 9854 9851 9852 9857 9863 9869 9876 9882 9886 9890 9893 9894 9894 9896 9897 9899 9901 9903 9903 9904 9904 9905 9905 9905 9905 9905 9905 9905 9904 9904 9904 9903 9902 9902
9798 9797 9796 9794 9793 9792 9791 9789 9789 9788 9788 9788 9788 9787 9786 9786 9786 9786 9787 9787 9789 9790 9790 9791 9792 9794 9796 9799 9801 9803 9804 9805 9807 9809 9810 9811 9811 9813 9814 9817 9822 9827 9830 9832 9835 9838 9841 9843 9842 9841 9838 9836 9837 9843 9850 9856 9862 9867 9871 9875 9878 9879 9880 9881 9883 9885 9887 9889 9889 9889 9890 9890 9891 9891 9891 9891 9890 9890 9889 9889 9889 9889 9889 9889 9888
9789 9788 9787 9786 9784 9783 9782 9781 9780 9779 9778 9778 9778 9778 9777 9777 9777 9777 9777 9778 9778 9780 9780 9781 9782 9784 9785 9788 9790 9791 9793 9794 9795 9797 9799 9800 9802 9803 9805 9808 9812 9815 9818 9821 9823 9824 9826 9829 9831 9830 9826 9826 9832 9839 9845 9849 9854 9857 9860 9862 9863 9865 9866 9868 9870 9872 9874 9876 9876 9877 9877 9876 9876 9876 9876 9876 9875 9875 9875 9874 9874 9875 9875 9875 9874
9780 9779 9778 9777 9776 9774 9773 9772 9770 9770 9770 9769 9768 9769 9769 9768 9768 9768 9768 9768 9769 9769 9770 9771 9772 9773 9775 9777 9779 9780 9782 9784 9785 9787 9788 9790 9792 9794 9796 9798 9801 9804 9806 9809 9811 9812 9814 9817 9819 9818 9818 9822 9829 9833 9836 9839 9842 9844 9846 9847 9849 9850 9852 9853 9853 9855 9857 9860 9862 9863 9863 9862 9862 9862 9862 9862 9862 9861 9861 9861 9861 9861 9861 9861 9860
9773 9771 9770 9769 9768 9766 9765 9763 9762 9761 9761 9760 9760 9760 9759 9759 9759 9759 9759 9759 9760 9760 9761 9761 9762 9763 9765 9766 9768 9770 9772 9774 9775 9777 9777 9779 9780 9782 9784 9787 9790 9792 9795 9798 9800 9801 9803 9805 9806 9808 9812 9817 9821 9822 9824 9825 9827 9829 9831 9833 9834 9835 9836 9837 9838 9840 9842 9843 9845 9847 9847 9848 9849 9849 9849 9849 9849 9849 9848 9848 9848 9848 9847 9847 9846
9766 9764 9762 9761 9759 9758 9757 9756 9754 9753 9752 9751 9751 9751 9750 9750 9750 9750 9750 9751 9751 9751 9751 9752 9753 9754 9755 9756 9758 9760 9761 9763 9765 9766 9767 9769 9770 9771 9773 9776 9778 9781 9783 9786 9788 9790 9791 9793 9795 9798 9802 9805 9807 9808 9809 9811 9813 9815 9818 9819 9820 9821 9822 9823 9824 9826 9828 9829 9831 9831 9833 9834 9835 9835 9836 9836 9836 9836 9836 9835 9835 9835 9833 9833 9832
9759 9757 9755 9753 9752 9750 9749 9748 9747 9746 9744 9743 9742 9742 9742 9742 9741 9741 9741 9741 9741 9742 9743 9743 9744 9745 9746 9746 9748 9749 9751 9753 9755 9756 9757 9759 9760 9761 9763 9765 9767 9770 9772 9774 9776 9779 9780 9782 9784 9787 9790 9792 9793 9794 9796 9798 9801 9803 9805 9806 9807 9809 9810 9811 9813 9814 9816 9817 9818 9818 9819 9820 9820 9821 9822 9822 9822 9822 9822 9821 9821 9821 9819 9818 9817
9752 9750 9748 9747 9745 9743 9742 9741 9739 9739 9738 9736 9735 9734 9733 9733 9733 9733 9733 9732 9733 9733 9733 9734 9735 9735 9736 9737 9738 9740 9741 9743 9745 9746 9747 9749 9750 9752 9753 9755 9757 9759 9761 9763 9766 9768 9770 9772 9774 9776 9778 9780 9782 9783 9786 9788 9790 9792 9794 9795 9797 9798 9799 9801 9802 9803 9803 9804 9805 9805 9806 9807 9807 9808 9808 9808 9808 9808 9808 9807 9807 9806 9805 9804 9803
9745 9744 9742 9740 9738 9736 9735 9733 9732 9731 9730 9729 9728 9727 9726 9725 9725 9724 9724 9724 9724 9724 9725 9725 9726 9726 9727 9728 9729 9730 9731 9733 9734 9736 9737 9739 9740 9742 9744 9745 9747 9749 9751 9753 9755 9757 9759 9761 9763 9765 9767 9769 9771 9774 9776 9777 9778 9780 9782 9784 9785 9787 9788 9789 9790 9790 9791 9792 9792 9792 9793 9793 9794 9795 9795 9795 9795 9794 9793 9793 9792 9792 9790 9790 9790
9737 9737 9735 9734 9732 9730 9728 9727 9725 9723 9722 9721 9720 9719 9718 9717 9717 9716 9716 9716 9716 9716 9716 9717 9717 9717 9718 9719 9720 9721 9722 9723 9725 9726 9728 9729 9731 9732 9734 9735 9737 9739 9740 9742 9744 9746 9748 9750 9753 9754 9756 9759 9761 9762 9764 9766 9767 9769 9771 9772 9774 9775 9776 9777 9777 9778 9778 9778 9779 9779 9780 9781 9782 9782 9782 9782 9781 9781 9780 9779 9779 9778 9777 9777 9776
9730 9729 9728 9727 9726 9724 9722 9720 9718 9717 9715 9714 9712 9712 9711 9710 9709 9708 9708 9708 9707 9707 9708 9708 9709 9709 9709 9710 9710 9711 9712 9713 9715 9717 9718 9720 9721 9723 9724 9726 9727 9729 9730 9732 9733 9735 9737 9739 9741 9743 9745 9747 9749 9751 9752 9754 9755 9757 9758 9760 9761 9762 9763 9764 9765 9765 9765 9766 9766 9767 9768 9769 9769 9769 9769 9769 9768 9768 9768 9767 9766 9765 9764 9763 9763